This is the latest recevied weather packets stored in our database for station/object K4ZZR. If no packets are shown the sender has not sent any weather packets the latest 10 day(s).
| Time | Temp. | Humidity | Pressure | Rain* | Wind** | Luminosity | Snow |
|---|---|---|---|---|---|---|---|
| 1778083971 | 27.78° C | 77% | 1017.4 hPa | 0 mm | - | 243 W/m² | - |
| 1778083668 | 27.78° C | 74% | 1017.4 hPa | 0 mm | - | 693 W/m² | - |
| 1778083365 | 27.78° C | 77% | 1017.2 hPa | 0 mm | - | 618 W/m² | - |
| 1778083064 | 27.78° C | 75% | 1017.3 hPa | 0 mm | - | 571 W/m² | - |
| 1778082759 | 27.78° C | 76% | 1017.2 hPa | 0 mm | - | 598 W/m² | - |
| 1778081627 | 27.78° C | 78% | 1017.3 hPa | 0 mm | - | 759 W/m² | - |
| 1778081324 | 27.78° C | 77% | 1017.5 hPa | 0 mm | - | 754 W/m² | - |
| 1778081021 | 27.78° C | 79% | 1017.3 hPa | 0 mm | - | 690 W/m² | - |
| 1778080719 | 27.78° C | 76% | 1017.1 hPa | 0 mm | - | 733 W/m² | - |
| 1778080416 | 27.78° C | 78% | 1017.3 hPa | 0 mm | - | 610 W/m² | - |
| 1778080113 | 27.22° C | 80% | 1017.3 hPa | 0 mm | - | 536 W/m² | - |
| 1778079810 | 27.22° C | 79% | 1017.2 hPa | 0 mm | - | 606 W/m² | - |
| 1778079507 | 27.22° C | 79% | 1017.2 hPa | 0 mm | - | 686 W/m² | - |
| 1778079203 | 27.78° C | 79% | 1017.3 hPa | 0 mm | - | 564 W/m² | - |
| 1778078901 | 27.22° C | 78% | 1017.4 hPa | 0 mm | - | 711 W/m² | - |
| 1778078597 | 27.22° C | 80% | 1017.3 hPa | 0 mm | - | 682 W/m² | - |
| 1778078296 | 27.22° C | 81% | 1017.3 hPa | 0 mm | - | 583 W/m² | - |
| 1778077992 | 27.22° C | 81% | 1017 hPa | 0 mm | - | 662 W/m² | - |
| 1778077690 | 27.22° C | 81% | 1017.1 hPa | 0 mm | - | 625 W/m² | - |
| 1778077388 | 27.22° C | 81% | 1017 hPa | 0 mm | - | 427 W/m² | - |
| 1778077086 | 26.67° C | 82% | 1017.1 hPa | 0 mm | - | 557 W/m² | - |
| 1778076784 | 26.67° C | 83% | 1016.9 hPa | 0 mm | - | 626 W/m² | - |
| 1778076482 | 27.22° C | 82% | 1016.8 hPa | 0 mm | - | 415 W/m² | - |
| 1778076178 | 26.67° C | 85% | 1016.7 hPa | 0 mm | - | 555 W/m² | - |
| 1778075875 | 26.67° C | 85% | 1016.8 hPa | 0 mm | - | 475 W/m² | - |
* Rain latest hour (hover to see other rain measurements)
** Current wind speed in m/s (hover to see current wind gust speed)